| time (UTC) | temp C | wind direction | speed KPH | gust KPH | rain 1hr cm | rain 24hr cm | rain mn cm | humidity % | barometer mb |
| 20260508114520 | 15 | 160 | 0.0 | 4.8 | 0.00 | 0.00 | 0.00 | 100 | 1018.0 |
| 20260508113020 | 15 | 360 | 0.0 | 6.4 | 0.00 | 0.00 | 0.00 | 100 | 1017.9 |
| 20260508111518 | 15 | 18 | 0.0 | 9.7 | 0.00 | 0.00 | 0.00 | 100 | 1018.0 |
| 20260508110017 | 15 | 360 | 1.6 | 8.0 | 0.00 | 0.00 | 0.00 | 100 | 1017.9 |
| 20260508104514 | 14 | 360 | 0.0 | 6.4 | 0.00 | 0.00 | 0.00 | 100 | 1018.0 |
| 20260508103017 | 13 | 162 | 0.0 | 0.0 | 0.00 | 0.00 | 0.00 | 100 | 1018.1 |
| 20260508101510 | 13 | 163 | 0.0 | 1.6 | 0.00 | 0.00 | 0.00 | 100 | 1018.1 |
| 20260508100010 | 13 | 360 | 0.0 | 3.2 | 0.00 | 0.00 | 0.00 | 100 | 1018.2 |
| 20260508094507 | 13 | 180 | 0.0 | 4.8 | 0.00 | 0.00 | 0.00 | 100 | 1018.1 |
| 20260508093007 | 13 | 360 | 0.0 | 3.2 | 0.00 | 0.00 | 0.00 | 100 | 1018.1 |
| 20260508091507 | 13 | 360 | 0.0 | 4.8 | 0.00 | 0.00 | 0.00 | 100 | 1018.0 |
| 20260508090006 | 13 | 130 | 1.6 | 6.4 | 0.00 | 0.00 | 0.00 | 100 | 1018.0 |
| 20260508084502 | 12 | 210 | 0.0 | 3.2 | 0.00 | 0.00 | 0.00 | 100 | 1017.9 |
| 20260508083102 | 11 | 79 | 0.0 | 3.2 | 0.00 | 0.00 | 0.00 | 100 | 1017.9 |
| 20260508081624 | 11 | 44 | 0.0 | 3.2 | 0.00 | 0.00 | 0.00 | 100 | 1017.9 |
| 20260508080053 | 10 | 100 | 0.0 | 1.6 | 0.00 | 0.00 | 0.00 | 100 | 1017.9 |
| 20260508074549 | 10 | 99 | 0.0 | 1.6 | 0.00 | 0.00 | 0.00 | 100 | 1017.8 |
| 20260508073052 | 8 | 99 | 0.0 | 1.6 | 0.00 | 0.00 | 0.00 | 100 | 1017.8 |
| 20260508071549 | 8 | 93 | 0.0 | 0.0 | 0.00 | 0.00 | 0.00 | 100 | 1017.7 |
| 20260508070051 | 7 | 108 | 0.0 | 1.6 | 0.00 | 0.00 | 0.00 | 100 | 1017.4 |
| 20260508064543 | 7 | 107 | 0.0 | 0.0 | 0.00 | 0.00 | 0.00 | 100 | 1017.5 |
| 20260508063041 | 6 | 153 | 0.0 | 0.0 | 0.00 | 0.00 | 0.00 | 100 | 1017.2 |
| 20260508061541 | 6 | 155 | 0.0 | 1.6 | 0.00 | 0.00 | 0.00 | 100 | 1017.1 |
| 20260508060040 | 5 | 155 | 0.0 | 0.0 | 0.00 | 0.00 | 0.00 | 100 | 1017.0 |
| 20260508054542 | 5 | 178 | 0.0 | 3.2 | 0.00 | 0.00 | 0.00 | 100 | 1017.0 |
| 20260508053037 | 4 | 238 | 0.0 | 0.0 | 0.00 | 0.00 | 0.00 | 100 | 1016.9 |
| 20260508051537 | 3 | 180 | 0.0 | 0.0 | 0.00 | 0.00 | 0.00 | 100 | 1016.8 |
| 20260508050039 | 3 | 178 | 0.0 | 0.0 | 0.00 | 0.00 | 0.00 | 100 | 1016.8 |
| 20260508044544 | 3 | 179 | 0.0 | 4.8 | 0.00 | 0.00 | 0.00 | 100 | 1016.8 |
| 20260508043042 | 3 | 160 | 0.0 | 0.0 | 0.00 | 0.00 | 0.00 | 100 | 1016.8 |
| 20260508041533 | 3 | 180 | 0.0 | 0.0 | 0.00 | 0.00 | 0.00 | 100 | 1016.8 |
| 20260508040032 | 3 | 180 | 0.0 | 0.0 | 0.00 | 0.00 | 0.00 | 100 | 1016.6 |
| 20260508034538 | 3 | 180 | 0.0 | 0.0 | 0.00 | 0.00 | 0.00 | 100 | 1016.6 |
| 20260508033030 | 3 | 180 | 0.0 | 0.0 | 0.00 | 0.00 | 0.00 | 100 | 1016.6 |
| 20260508031528 | 3 | 180 | 0.0 | 0.0 | 0.00 | 0.00 | 0.00 | 100 | 1016.6 |
| 20260508030026 | 4 | 180 | 0.0 | 0.0 | 0.00 | 0.00 | 0.00 | 100 | 1016.6 |
| 20260508024530 | 4 | 180 | 0.0 | 0.0 | 0.00 | 0.00 | 0.00 | 100 | 1016.7 |
| 20260508023024 | 5 | 180 | 0.0 | 0.0 | 0.00 | 0.00 | 0.00 | 100 | 1016.6 |
| 20260508021520 | 5 | 180 | 0.0 | 0.0 | 0.00 | 0.00 | 0.00 | 100 | 1016.5 |
| 20260508020018 | 5 | 180 | 0.0 | 0.0 | 0.00 | 0.00 | 0.00 | 100 | 1016.4 |
| 20260508014516 | 5 | 180 | 0.0 | 0.0 | 0.00 | 0.00 | 0.00 | 100 | 1016.4 |
| 20260508013013 | 6 | 180 | 0.0 | 0.0 | 0.00 | 0.00 | 0.00 | 100 | 1016.4 |
| 20260508011513 | 6 | 180 | 0.0 | 0.0 | 0.00 | 0.00 | 0.00 | 100 | 1016.4 |
| 20260508010012 | 6 | 180 | 0.0 | 0.0 | 0.00 | 0.00 | 0.00 | 100 | 1016.5 |
| 20260508004513 | 6 | 180 | 0.0 | 0.0 | 0.00 | 0.00 | 0.00 | 100 | 1016.5 |
| 20260508003007 | 6 | 180 | 0.0 | 0.0 | 0.00 | 0.00 | 0.00 | 100 | 1016.6 |
| 20260508001505 | 7 | 180 | 0.0 | 0.0 | 0.00 | 0.00 | 0.00 | 100 | 1016.6 |
| 20260508000004 | 7 | 180 | 0.0 | 0.0 | 0.00 | 0.00 | 0.00 | 100 | 1016.6 |
| 20260507234604 | 8 | 180 | 0.0 | 0.0 | 0.00 | 0.00 | 0.00 | 100 | 1016.6 |
| 20260507233056 | 8 | 180 | 0.0 | 0.0 | 0.00 | 0.00 | 0.00 | 100 | 1016.6 |
| 20260507231557 | 8 | 180 | 0.0 | 0.0 | 0.00 | 0.00 | 0.00 | 100 | 1016.5 |
| 20260507230056 | 9 | 181 | 0.0 | 0.0 | 0.00 | 0.00 | 0.00 | 100 | 1016.5 |
| 20260507224551 | 9 | 180 | 0.0 | 0.0 | 0.00 | 0.00 | 0.00 | 100 | 1016.4 |
| 20260507223056 | 10 | 180 | 0.0 | 0.0 | 0.00 | 0.00 | 0.00 | 100 | 1016.4 |
| 20260507221551 | 10 | 180 | 0.0 | 1.6 | 0.00 | 0.00 | 0.00 | 100 | 1016.3 |
| 20260507220051 | 10 | 123 | 0.0 | 0.0 | 0.00 | 0.00 | 0.00 | 100 | 1016.3 |
| 20260507214549 | 10 | 124 | 0.0 | 0.0 | 0.00 | 0.00 | 0.00 | 100 | 1016.3 |
| 20260507213049 | 10 | 360 | 0.0 | 0.0 | 0.00 | 0.00 | 0.00 | 100 | 1016.4 |
| 20260507211548 | 10 | 123 | 0.0 | 0.0 | 0.00 | 0.00 | 0.00 | 100 | 1016.3 |
| 20260507210049 | 11 | 121 | 0.0 | 1.6 | 0.00 | 0.00 | 0.00 | 100 | 1016.3 |
| 20260507204545 | 11 | 360 | 0.0 | 3.2 | 0.00 | 0.00 | 0.00 | 100 | 1016.1 |
| 20260507203054 | 11 | 360 | 0.0 | 4.8 | 0.00 | 0.00 | 0.00 | 100 | 1016.0 |
| 20260507201545 | 11 | 360 | 0.0 | 4.8 | 0.00 | 0.00 | 0.00 | 100 | 1016.0 |
| 20260507200049 | 11 | 132 | 0.0 | 6.4 | 0.00 | 0.00 | 0.00 | 100 | 1015.8 |
| 20260507194544 | 11 | 360 | 1.6 | 9.7 | 0.00 | 0.00 | 0.00 | 100 | 1015.7 |
| 20260507193045 | 11 | 105 | 0.0 | 0.0 | 0.00 | 0.00 | 0.00 | 100 | 1015.5 |
| 20260507191542 | 11 | 360 | 0.0 | 1.6 | 0.00 | 0.00 | 0.00 | 100 | 1015.4 |
| 20260507190141 | 12 | 103 | 0.0 | 4.8 | 0.00 | 0.00 | 0.00 | 100 | 1015.4 |
| 20260507184543 | 12 | 101 | 1.6 | 6.4 | 0.00 | 0.00 | 0.00 | 100 | 1015.2 |
| 20260507183043 | 12 | 360 | 0.0 | 4.8 | 0.00 | 0.00 | 0.00 | 100 | 1015.2 |
| 20260507181538 | 12 | 131 | 0.0 | 4.8 | 0.00 | 0.00 | 0.00 | 100 | 1015.2 |
| 20260507180042 | 12 | 108 | 3.2 | 8.0 | 0.00 | 0.00 | 0.00 | 100 | 1015.0 |
| 20260507174539 | 12 | 120 | 1.6 | 6.4 | 0.00 | 0.00 | 0.00 | 100 | 1015.0 |
| 20260507173045 | 13 | 142 | 1.6 | 4.8 | 0.00 | 0.00 | 0.00 | 100 | 1015.0 |
| 20260507171546 | 13 | 155 | 0.0 | 4.8 | 0.00 | 0.00 | 0.00 | 100 | 1015.0 |
| 20260507170033 | 13 | 360 | 0.0 | 6.4 | 0.00 | 0.00 | 0.00 | 100 | 1015.1 |
| 20260507164541 | 13 | 86 | 0.0 | 9.7 | 0.00 | 0.00 | 0.00 | 100 | 1015.2 |
| 20260507163032 | 13 | 360 | 0.0 | 4.8 | 0.00 | 0.00 | 0.00 | 100 | 1015.2 |
| 20260507161540 | 13 | 115 | 0.0 | 4.8 | 0.00 | 0.00 | 0.00 | 100 | 1015.3 |
| 20260507160039 | 13 | 360 | 0.0 | 6.4 | 0.00 | 0.00 | 0.00 | 100 | 1015.3 |
| 20260507154534 | 13 | 99 | 0.0 | 4.8 | 0.00 | 0.00 | 0.00 | 100 | 1015.3 |
| 20260507153027 | 13 | 360 | 1.6 | 8.0 | 0.00 | 0.00 | 0.00 | 100 | 1015.4 |
| 20260507151537 | 13 | 360 | 3.2 | 8.0 | 0.00 | 0.00 | 0.00 | 100 | 1015.5 |
| 20260507150024 | 13 | 360 | 0.0 | 6.4 | 0.00 | 0.00 | 0.00 | 100 | 1015.6 |
| 20260507144522 | 13 | 360 | 0.0 | 6.4 | 0.00 | 0.00 | 0.00 | 100 | 1015.9 |
| 20260507143020 | 13 | 84 | 1.6 | 8.0 | 0.00 | 0.00 | 0.00 | 100 | 1016.1 |
| 20260507141520 | 13 | 360 | 1.6 | 9.7 | 0.00 | 0.00 | 0.00 | 100 | 1016.1 |
| 20260507140020 | 13 | 115 | 0.0 | 6.4 | 0.00 | 0.00 | 0.00 | 100 | 1016.2 |
| 20260507134528 | 13 | 50 | 1.6 | 8.0 | 0.00 | 0.00 | 0.00 | 100 | 1016.3 |
| 20260507133015 | 13 | 97 | 3.2 | 8.0 | 0.00 | 0.00 | 0.00 | 100 | 1016.4 |
| 20260507131518 | 12 | 82 | 0.0 | 9.7 | 0.00 | 0.00 | 0.00 | 100 | 1016.4 |
| 20260507130009 | 12 | 360 | 1.6 | 11.3 | 0.00 | 0.00 | 0.00 | 100 | 1016.5 |
| 20260507124507 | 12 | 360 | 3.2 | 8.0 | 0.00 | 0.00 | 0.00 | 100 | 1016.5 |
| 20260507123016 | 12 | 360 | 1.6 | 8.0 | 0.00 | 0.00 | 0.00 | 100 | 1016.6 |
| 20260507121502 | 11 | 360 | 1.6 | 6.4 | 0.00 | 0.00 | 0.00 | 100 | 1016.6 |
| 20260507120058 | 10 | 360 | 1.6 | 8.0 | 0.00 | 0.00 | 0.00 | 100 | 1016.7 |